Time,TemperatureF,DewpointF,PressureIn,WindDirection,WindDirectionDegrees,WindSpeedMPH,WindSpeedGustMPH,Humidity,HourlyPrecipIn,Conditions,Clouds,dailyrainin,SoftwareType,DateUTC
2013-03-20 00:00:00,38.8,-3.5,29.41,NNW,335,0.0,2.7,16,0.00,,,0.00,VWS V13.01,2013-03-20 04:00:00,
2013-03-20 00:05:00,38.1,-4.1,29.41,NNW,335,0.0,0.0,16,0.00,,,0.00,VWS V13.01,2013-03-20 04:05:00,
2013-03-20 00:10:00,37.4,-4.7,29.41,NNW,335,0.0,0.0,16,0.00,,,0.00,VWS V13.01,2013-03-20 04:10:00,
2013-03-20 00:15:00,37.0,-3.7,29.41,NNW,335,0.0,0.0,17,0.00,,,0.00,VWS V13.01,2013-03-20 04:15:00,
2013-03-20 00:20:00,36.7,-4.0,29.41,NNW,335,0.0,0.0,17,0.00,,,0.00,VWS V13.01,2013-03-20 04:20:00,
2013-03-20 00:25:00,37.2,-3.6,29.41,NNW,336,0.0,2.7,17,0.00,,,0.00,VWS V13.01,2013-03-20 04:25:00,
2013-03-20 00:30:00,37.6,-4.5,29.41,NNW,336,2.2,2.2,16,0.00,,,0.00,VWS V13.01,2013-03-20 04:30:00,
2013-03-20 00:35:00,37.9,-4.2,29.41,NNW,345,2.2,2.7,16,0.00,,,0.00,VWS V13.01,2013-03-20 04:35:00,
2013-03-20 00:40:00,37.6,-4.5,29.41,NNW,345,0.0,2.7,16,0.00,,,0.00,VWS V13.01,2013-03-20 04:40:00,
2013-03-20 00:45:00,36.5,-4.2,29.41,NNW,345,0.0,0.0,17,0.00,,,0.00,VWS V13.01,2013-03-20 04:45:00,
2013-03-20 00:50:00,35.4,-5.1,29.41,NNW,345,0.0,0.0,17,0.00,,,0.00,VWS V13.01,2013-03-20 04:50:00,
2013-03-20 00:56:00,34.7,-5.6,29.41,NNW,345,2.7,2.7,17,0.00,,,0.00,VWS V13.01,2013-03-20 04:56:00,
2013-03-20 01:01:00,34.3,-5.9,29.41,NNW,345,2.2,2.7,17,0.00,,,0.00,VWS V13.01,2013-03-20 05:01:00,
2013-03-20 01:06:00,34.2,-6.1,29.41,NW,326,0.0,2.7,17,0.00,,,0.00,VWS V13.01,2013-03-20 05:06:00,
2013-03-20 01:11:00,34.2,-6.1,29.41,North,353,0.0,3.1,17,0.00,,,0.00,VWS V13.01,2013-03-20 05:11:00,
2013-03-20 01:16:00,34.2,-6.1,29.41,North,353,2.7,2.7,17,0.00,,,0.00,VWS V13.01,2013-03-20 05:16:00,
2013-03-20 01:21:00,34.7,-5.6,29.41,North,353,0.0,2.7,17,0.00,,,0.00,VWS V13.01,2013-03-20 05:21:00,
2013-03-20 01:26:00,34.7,-5.6,29.41,North,353,0.0,0.0,17,0.00,,,0.00,VWS V13.01,2013-03-20 05:26:00,
2013-03-20 01:31:00,35.6,-4.9,29.41,North,357,2.7,3.1,17,0.00,,,0.00,VWS V13.01,2013-03-20 05:31:00,
2013-03-20 01:36:00,36.3,-4.3,29.41,NNW,338,2.2,2.7,17,0.00,,,0.00,VWS V13.01,2013-03-20 05:36:00,
2013-03-20 01:42:00,36.7,-4.0,29.41,NNW,343,2.7,2.7,17,0.00,,,0.00,VWS V13.01,2013-03-20 05:42:00,
2013-03-20 01:47:00,36.7,-4.0,29.41,NNW,343,2.2,2.2,17,0.00,,,0.00,VWS V13.01,2013-03-20 05:47:00,
2013-03-20 01:52:00,36.7,-4.0,29.41,NNW,343,0.0,2.2,17,0.00,,,0.00,VWS V13.01,2013-03-20 05:52:00,
2013-03-20 01:57:00,36.7,-4.0,29.41,North,350,2.7,2.7,17,0.00,,,0.00,VWS V13.01,2013-03-20 05:57:00,
2013-03-20 02:02:00,36.5,-4.2,29.41,North,353,0.0,2.2,17,0.00,,,0.00,VWS V13.01,2013-03-20 06:02:00,
2013-03-20 02:07:00,36.1,-4.5,29.41,North,353,0.0,0.0,17,0.00,,,0.00,VWS V13.01,2013-03-20 06:07:00,
2013-03-20 02:12:00,35.6,-4.9,29.41,North,353,0.0,0.0,17,0.00,,,0.00,VWS V13.01,2013-03-20 06:12:00,
2013-03-20 02:17:00,34.9,-5.5,29.41,North,353,0.0,0.0,17,0.00,,,0.00,VWS V13.01,2013-03-20 06:17:00,
2013-03-20 02:22:00,34.0,-6.2,29.41,North,353,0.0,0.0,17,0.00,,,0.00,VWS V13.01,2013-03-20 06:22:00,
2013-03-20 02:27:00,33.3,-5.7,29.41,North,353,0.0,0.0,18,0.00,,,0.00,VWS V13.01,2013-03-20 06:27:00,
2013-03-20 02:32:00,32.7,-6.1,29.41,North,353,0.0,0.0,18,0.00,,,0.00,VWS V13.01,2013-03-20 06:32:00,
2013-03-20 02:37:00,32.4,-6.4,29.41,North,353,0.0,0.0,18,0.00,,,0.00,VWS V13.01,2013-03-20 06:37:00,
2013-03-20 02:42:00,32.2,-6.6,29.41,North,353,0.0,0.0,18,0.00,,,0.00,VWS V13.01,2013-03-20 06:42:00,
2013-03-20 02:47:00,31.6,-7.0,29.41,North,353,0.0,0.0,18,0.00,,,0.00,VWS V13.01,2013-03-20 06:47:00,
2013-03-20 02:52:00,31.1,-7.4,29.41,North,353,0.0,0.0,18,0.00,,,0.00,VWS V13.01,2013-03-20 06:52:00,
2013-03-20 02:57:00,30.7,-7.7,29.41,North,353,0.0,0.0,18,0.00,,,0.00,VWS V13.01,2013-03-20 06:57:00,
2013-03-20 03:02:00,30.4,-8.0,29.41,North,353,0.0,0.0,18,0.00,,,0.00,VWS V13.01,2013-03-20 07:02:00,
2013-03-20 03:07:00,30.0,-8.3,29.38,North,353,0.0,0.0,18,0.00,,,0.00,VWS V13.01,2013-03-20 07:07:00,
2013-03-20 03:12:00,29.8,-8.5,29.38,North,353,0.0,0.0,18,0.00,,,0.00,VWS V13.01,2013-03-20 07:12:00,
2013-03-20 03:17:00,29.7,-8.6,29.38,North,353,0.0,0.0,18,0.00,,,0.00,VWS V13.01,2013-03-20 07:17:00,
2013-03-20 03:22:00,29.5,-6.6,29.38,North,353,0.0,0.0,20,0.00,,,0.00,VWS V13.01,2013-03-20 07:22:00,
2013-03-20 03:27:00,29.3,-6.8,29.38,North,353,0.0,0.0,20,0.00,,,0.00,VWS V13.01,2013-03-20 07:27:00,
2013-03-20 03:32:00,29.3,-6.8,29.38,North,353,0.0,0.0,20,0.00,,,0.00,VWS V13.01,2013-03-20 07:32:00,
2013-03-20 03:37:00,29.1,-4.1,29.38,North,353,0.0,0.0,23,0.00,,,0.00,VWS V13.01,2013-03-20 07:37:00,
2013-03-20 03:42:00,29.1,-2.3,29.38,North,353,0.0,0.0,25,0.00,,,0.00,VWS V13.01,2013-03-20 07:42:00,
2013-03-20 03:47:00,29.1,1.6,29.38,North,0,0.0,0.0,30,0.00,,,0.00,VWS V13.01,2013-03-20 07:47:00,
2013-03-20 03:52:00,29.1,2.3,29.38,North,0,0.0,2.7,31,0.00,,,0.00,VWS V13.01,2013-03-20 07:52:00,
2013-03-20 03:57:00,29.1,2.3,29.38,North,0,0.0,0.0,31,0.00,,,0.00,VWS V13.01,2013-03-20 07:57:00,
2013-03-20 04:02:00,29.1,2.3,29.38,North,0,0.0,0.0,31,0.00,,,0.00,VWS V13.01,2013-03-20 08:02:00,
2013-03-20 04:07:00,28.9,1.4,29.38,North,0,0.0,0.0,30,0.00,,,0.00,VWS V13.01,2013-03-20 08:07:00,
2013-03-20 04:12:00,28.9,1.4,29.38,North,0,0.0,0.0,30,0.00,,,0.00,VWS V13.01,2013-03-20 08:12:00,
2013-03-20 04:17:00,28.8,2.0,29.38,North,0,0.0,0.0,31,0.00,,,0.00,VWS V13.01,2013-03-20 08:17:00,
2013-03-20 04:22:00,28.6,1.8,29.38,North,0,0.0,0.0,31,0.00,,,0.00,VWS V13.01,2013-03-20 08:22:00,
2013-03-20 04:27:00,28.6,1.8,29.38,North,0,0.0,0.0,31,0.00,,,0.00,VWS V13.01,2013-03-20 08:27:00,
2013-03-20 04:32:00,28.4,1.6,29.38,North,0,0.0,0.0,31,0.00,,,0.00,VWS V13.01,2013-03-20 08:32:00,
2013-03-20 04:37:00,28.2,1.5,29.38,North,0,0.0,0.0,31,0.00,,,0.00,VWS V13.01,2013-03-20 08:37:00,
2013-03-20 04:42:00,28.2,1.5,29.38,North,0,0.0,0.0,31,0.00,,,0.00,VWS V13.01,2013-03-20 08:42:00,
2013-03-20 04:47:00,28.4,1.6,29.38,North,0,0.0,0.0,31,0.00,,,0.00,VWS V13.01,2013-03-20 08:47:00,
2013-03-20 04:52:00,28.2,1.5,29.38,North,0,0.0,0.0,31,0.00,,,0.00,VWS V13.01,2013-03-20 08:52:00,
2013-03-20 04:57:00,28.2,1.5,29.38,North,0,0.0,0.0,31,0.00,,,0.00,VWS V13.01,2013-03-20 08:57:00,
2013-03-20 05:02:00,28.2,1.5,29.38,North,0,0.0,0.0,31,0.00,,,0.00,VWS V13.01,2013-03-20 09:02:00,
2013-03-20 05:07:00,28.2,1.5,29.38,North,0,0.0,0.0,31,0.00,,,0.00,VWS V13.01,2013-03-20 09:07:00,
2013-03-20 05:12:00,27.9,1.2,29.38,North,0,0.0,0.0,31,0.00,,,0.00,VWS V13.01,2013-03-20 09:12:00,
2013-03-20 05:17:00,27.7,1.0,29.38,North,0,0.0,0.0,31,0.00,,,0.00,VWS V13.01,2013-03-20 09:17:00,
2013-03-20 05:22:00,27.7,1.0,29.38,North,0,0.0,0.0,31,0.00,,,0.00,VWS V13.01,2013-03-20 09:22:00,
2013-03-20 05:27:00,27.9,1.2,29.38,NW,316,0.0,0.0,31,0.00,,,0.00,VWS V13.01,2013-03-20 09:27:00,
2013-03-20 05:33:00,27.9,1.2,29.38,NW,316,0.0,0.0,31,0.00,,,0.00,VWS V13.01,2013-03-20 09:33:00,
2013-03-20 05:38:00,27.7,1.0,29.35,NW,316,0.0,0.0,31,0.00,,,0.00,VWS V13.01,2013-03-20 09:38:00,
2013-03-20 05:43:00,27.5,0.8,29.35,NW,316,0.0,0.0,31,0.00,,,0.00,VWS V13.01,2013-03-20 09:43:00,
2013-03-20 05:48:00,27.5,0.8,29.35,NW,316,0.0,0.0,31,0.00,,,0.00,VWS V13.01,2013-03-20 09:48:00,
2013-03-20 05:53:00,27.5,0.8,29.35,NW,316,0.0,0.0,31,0.00,,,0.00,VWS V13.01,2013-03-20 09:53:00,
2013-03-20 05:58:00,27.3,0.7,29.35,NW,316,0.0,0.0,31,0.00,,,0.00,VWS V13.01,2013-03-20 09:58:00,
2013-03-20 06:02:00,27.1,0.5,29.35,NW,316,0.0,0.0,31,0.00,,,0.00,VWS V13.01,2013-03-20 10:02:00,
2013-03-20 06:07:00,27.0,0.4,29.35,NW,316,0.0,0.0,31,0.00,,,0.00,VWS V13.01,2013-03-20 10:07:00,
2013-03-20 06:13:00,27.0,0.4,29.35,NW,316,0.0,0.0,31,0.00,,,0.00,VWS V13.01,2013-03-20 10:13:00,
2013-03-20 06:17:00,26.6,0.7,29.35,NW,316,0.0,0.0,32,0.00,,,0.00,VWS V13.01,2013-03-20 10:17:00,
2013-03-20 06:22:00,26.4,0.6,29.35,NW,316,0.0,0.0,32,0.00,,,0.00,VWS V13.01,2013-03-20 10:22:00,
2013-03-20 06:27:00,26.4,0.6,29.35,NW,316,0.0,0.0,32,0.00,,,0.00,VWS V13.01,2013-03-20 10:27:00,
2013-03-20 06:32:00,26.4,0.6,29.35,NW,316,0.0,0.0,32,0.00,,,0.00,VWS V13.01,2013-03-20 10:32:00,
2013-03-20 06:37:00,26.1,0.2,29.35,NW,316,0.0,0.0,32,0.00,,,0.00,VWS V13.01,2013-03-20 10:37:00,
2013-03-20 06:42:00,26.1,0.9,29.35,NW,316,0.0,0.0,33,0.00,,,0.00,VWS V13.01,2013-03-20 10:42:00,
2013-03-20 06:47:00,26.1,0.9,29.35,NW,316,0.0,0.0,33,0.00,,,0.00,VWS V13.01,2013-03-20 10:47:00,
2013-03-20 06:52:00,26.1,0.9,29.35,NW,316,0.0,0.0,33,0.00,,,0.00,VWS V13.01,2013-03-20 10:52:00,
2013-03-20 06:57:00,25.9,1.4,29.35,NW,316,0.0,0.0,34,0.00,,,0.00,VWS V13.01,2013-03-20 10:57:00,
2013-03-20 07:02:00,25.9,1.4,29.35,NNW,342,3.1,3.1,34,0.00,,,0.00,VWS V13.01,2013-03-20 11:02:00,
2013-03-20 07:07:00,25.9,3.2,29.35,ESE,118,3.6,3.6,37,0.00,,,0.00,VWS V13.01,2013-03-20 11:07:00,
2013-03-20 07:12:00,26.1,3.9,29.35,ESE,107,4.0,4.5,38,0.00,,,0.00,VWS V13.01,2013-03-20 11:12:00,
2013-03-20 07:17:00,26.4,2.5,29.35,ESE,107,0.0,0.0,35,0.00,,,0.00,VWS V13.01,2013-03-20 11:17:00,
2013-03-20 07:23:00,26.4,1.9,29.35,ESE,107,2.2,4.0,34,0.00,,,0.00,VWS V13.01,2013-03-20 11:23:00,
2013-03-20 07:28:00,26.4,1.9,29.35,ESE,105,4.9,5.8,34,0.00,,,0.00,VWS V13.01,2013-03-20 11:28:00,
2013-03-20 07:35:00,26.8,0.9,29.35,SE,128,2.7,4.0,32,0.00,,,0.00,VWS V13.01,2013-03-20 11:35:00,
2013-03-20 07:45:00,26.6,1.4,29.35,SE,127,0.0,3.1,33,0.00,,,0.00,VWS V13.01,2013-03-20 11:45:00,
2013-03-20 07:50:00,26.6,1.4,29.35,SE,127,0.0,0.0,33,0.00,,,0.00,VWS V13.01,2013-03-20 11:50:00,
2013-03-20 07:55:00,26.4,0.6,29.35,SE,128,0.0,0.0,32,0.00,,,0.00,VWS V13.01,2013-03-20 11:55:00,
2013-03-20 08:05:00,26.1,0.9,29.35,SE,128,0.0,0.0,33,0.00,,,0.00,VWS V13.01,2013-03-20 12:05:00,
2013-03-20 08:10:00,26.1,0.9,29.35,SE,128,0.0,0.0,33,0.00,,,0.00,VWS V13.01,2013-03-20 12:10:00,
2013-03-20 08:15:00,26.1,0.9,29.35,SE,127,0.0,0.0,33,0.00,,,0.00,VWS V13.01,2013-03-20 12:15:00,
2013-03-20 08:20:00,25.9,0.8,29.38,SE,127,0.0,2.7,33,0.00,,,0.00,VWS V13.01,2013-03-20 12:20:00,
2013-03-20 08:29:00,26.4,3.1,29.38,SE,128,2.2,2.2,36,0.00,,,0.00,VWS V13.01,2013-03-20 12:29:00,
2013-03-20 08:34:00,27.1,4.3,29.35,SE,127,2.7,2.7,37,0.00,,,0.00,VWS V13.01,2013-03-20 12:34:00,
2013-03-20 08:39:00,27.9,5.6,29.35,SE,128,3.1,4.0,38,0.00,,,0.00,VWS V13.01,2013-03-20 12:39:00,
2013-03-20 08:44:00,28.6,5.0,29.35,SE,128,0.0,2.7,36,0.00,,,0.00,VWS V13.01,2013-03-20 12:44:00,
2013-03-20 08:49:00,29.1,4.9,29.38,SE,128,0.0,0.0,35,0.00,,,0.00,VWS V13.01,2013-03-20 12:49:00,
2013-03-20 08:54:00,29.5,5.2,29.38,SE,128,0.0,0.0,35,0.00,,,0.00,VWS V13.01,2013-03-20 12:54:00,
2013-03-20 08:59:00,30.4,6.0,29.38,SE,128,0.0,0.0,35,0.00,,,0.00,VWS V13.01,2013-03-20 12:59:00,
2013-03-20 09:04:00,31.6,6.5,29.35,SE,127,0.0,0.0,34,0.00,,,0.00,VWS V13.01,2013-03-20 13:04:00,
2013-03-20 09:09:00,32.5,6.6,29.35,SE,127,0.0,0.0,33,0.00,,,0.00,VWS V13.01,2013-03-20 13:09:00,
2013-03-20 09:14:00,32.7,5.4,29.35,SE,128,0.0,0.0,31,0.00,,,0.00,VWS V13.01,2013-03-20 13:14:00,
2013-03-20 09:19:00,32.9,5.6,29.38,SE,128,0.0,0.0,31,0.00,,,0.00,VWS V13.01,2013-03-20 13:19:00,
2013-03-20 09:24:00,33.1,5.0,29.38,SE,128,2.2,2.2,30,0.00,,,0.00,VWS V13.01,2013-03-20 13:24:00,
2013-03-20 09:29:00,33.3,3.7,29.38,SE,128,0.0,0.0,28,0.00,,,0.00,VWS V13.01,2013-03-20 13:29:00,
2013-03-20 09:34:00,33.6,4.0,29.35,SE,128,0.0,3.1,28,0.00,,,0.00,VWS V13.01,2013-03-20 13:34:00,
2013-03-20 09:39:00,34.2,2.0,29.35,NNW,337,0.0,3.6,25,0.00,,,0.00,VWS V13.01,2013-03-20 13:39:00,
2013-03-20 09:44:00,34.7,2.5,29.35,NNW,337,2.2,3.6,25,0.00,,,0.00,VWS V13.01,2013-03-20 13:44:00,
2013-03-20 09:49:00,35.4,3.1,29.35,NNW,337,2.7,2.7,25,0.00,,,0.00,VWS V13.01,2013-03-20 13:49:00,
2013-03-20 09:54:00,36.1,1.0,29.35,NNW,337,2.7,2.7,22,0.00,,,0.00,VWS V13.01,2013-03-20 13:54:00,
2013-03-20 09:59:00,37.0,-1.4,29.35,WNW,302,3.6,4.9,19,0.00,,,0.00,VWS V13.01,2013-03-20 13:59:00,
2013-03-20 10:04:00,38.1,-0.5,29.35,NW,310,3.1,3.6,19,0.00,,,0.00,VWS V13.01,2013-03-20 14:04:00,
2013-03-20 10:09:00,38.8,-3.5,29.35,NNW,328,3.1,4.0,16,0.00,,,0.00,VWS V13.01,2013-03-20 14:09:00,
2013-03-20 10:14:00,39.6,-2.9,29.35,NW,320,0.0,4.0,16,0.00,,,0.00,VWS V13.01,2013-03-20 14:14:00,
2013-03-20 10:19:00,40.1,-2.5,29.35,WNW,289,3.6,6.7,16,0.00,,,0.00,VWS V13.01,2013-03-20 14:19:00,
2013-03-20 10:24:00,40.8,-1.9,29.35,WNW,297,5.4,9.2,16,0.00,,,0.00,VWS V13.01,2013-03-20 14:24:00,
2013-03-20 10:29:00,41.4,-1.5,29.35,NW,315,5.4,7.2,16,0.00,,,0.00,VWS V13.01,2013-03-20 14:29:00,
2013-03-20 10:34:00,41.9,-1.0,29.32,WSW,258,8.7,8.7,16,0.00,,,0.00,VWS V13.01,2013-03-20 14:34:00,
2013-03-20 10:39:00,42.4,-0.6,29.32,West,268,10.1,11.0,16,0.00,,,0.00,VWS V13.01,2013-03-20 14:39:00,
2013-03-20 10:44:00,42.8,-1.6,29.32,West,281,8.1,15.0,15,0.00,,,0.00,VWS V13.01,2013-03-20 14:44:00,
2013-03-20 10:49:00,42.8,-1.6,29.35,NW,304,4.9,11.4,15,0.00,,,0.00,VWS V13.01,2013-03-20 14:49:00,
2013-03-20 10:54:00,43.2,-1.4,29.35,NW,320,8.3,11.0,15,0.00,,,0.00,VWS V13.01,2013-03-20 14:54:00,
2013-03-20 10:59:00,43.3,-1.2,29.35,SW,234,11.0,11.0,15,0.00,,,0.00,VWS V13.01,2013-03-20 14:59:00,
2013-03-20 11:04:00,43.7,-0.9,29.35,WNW,302,11.0,11.9,15,0.00,,,0.00,VWS V13.01,2013-03-20 15:04:00,
2013-03-20 11:09:00,43.7,-0.9,29.35,WSW,242,10.5,12.8,15,0.00,,,0.00,VWS V13.01,2013-03-20 15:09:00,
2013-03-20 11:14:00,43.7,-0.9,29.35,WSW,252,10.1,12.8,15,0.00,,,0.00,VWS V13.01,2013-03-20 15:14:00,
2013-03-20 11:19:00,43.7,-0.9,29.32,WSW,240,8.3,11.4,15,0.00,,,0.00,VWS V13.01,2013-03-20 15:19:00,
2013-03-20 11:24:00,44.4,-0.3,29.32,West,264,12.3,12.8,15,0.00,,,0.00,VWS V13.01,2013-03-20 15:24:00,
2013-03-20 11:29:00,44.4,-0.3,29.32,SW,233,12.3,16.8,15,0.00,,,0.00,VWS V13.01,2013-03-20 15:29:00,
2013-03-20 11:34:00,44.8,0.0,29.32,WSW,241,6.3,11.0,15,0.00,,,0.00,VWS V13.01,2013-03-20 15:34:00,
2013-03-20 11:39:00,45.0,0.1,29.32,West,265,6.3,12.8,15,0.00,,,0.00,VWS V13.01,2013-03-20 15:39:00,
2013-03-20 11:44:00,45.1,0.3,29.32,WSW,242,11.0,15.4,15,0.00,,,0.00,VWS V13.01,2013-03-20 15:44:00,
2013-03-20 11:49:00,45.0,0.1,29.32,West,280,8.7,12.8,15,0.00,,,0.00,VWS V13.01,2013-03-20 15:49:00,
2013-03-20 11:54:00,45.0,0.1,29.32,WNW,298,8.1,15.4,15,0.00,,,0.00,VWS V13.01,2013-03-20 15:54:00,
2013-03-20 11:59:00,45.3,0.4,29.32,NNW,330,23.3,23.3,15,0.00,,,0.00,VWS V13.01,2013-03-20 15:59:00,
2013-03-20 12:04:00,45.5,0.6,29.32,NW,305,8.1,14.5,15,0.00,,,0.00,VWS V13.01,2013-03-20 16:04:00,
2013-03-20 12:09:00,45.9,0.8,29.32,West,274,15.0,21.0,15,0.00,,,0.00,VWS V13.01,2013-03-20 16:09:00,
2013-03-20 12:14:00,45.9,0.8,29.32,WNW,284,15.4,18.3,15,0.00,,,0.00,VWS V13.01,2013-03-20 16:14:00,
2013-03-20 12:19:00,45.5,0.6,29.32,West,273,8.3,13.2,15,0.00,,,0.00,VWS V13.01,2013-03-20 16:19:00,
2013-03-20 12:24:00,46.0,1.0,29.32,West,275,10.1,13.2,15,0.00,,,0.00,VWS V13.01,2013-03-20 16:24:00,
2013-03-20 12:29:00,46.2,1.1,29.32,West,273,12.8,16.3,15,0.00,,,0.00,VWS V13.01,2013-03-20 16:29:00,
2013-03-20 12:34:00,46.4,-0.2,29.32,West,271,8.1,15.0,14,0.00,,,0.00,VWS V13.01,2013-03-20 16:34:00,
2013-03-20 12:39:00,46.4,-0.2,29.32,West,273,10.1,15.4,14,0.00,,,0.00,VWS V13.01,2013-03-20 16:39:00,
2013-03-20 12:44:00,46.8,0.1,29.32,WNW,285,6.3,13.2,14,0.00,,,0.00,VWS V13.01,2013-03-20 16:44:00,
2013-03-20 12:49:00,47.1,0.4,29.29,WSW,238,4.0,15.4,14,0.00,,,0.00,VWS V13.01,2013-03-20 16:49:00,
2013-03-20 12:54:00,47.3,0.5,29.29,WNW,300,10.1,17.4,14,0.00,,,0.00,VWS V13.01,2013-03-20 16:54:00,
2013-03-20 12:59:00,47.7,0.8,29.29,West,277,8.1,13.2,14,0.00,,,0.00,VWS V13.01,2013-03-20 16:59:00,
2013-03-20 13:04:00,47.8,1.0,29.29,West,260,10.5,14.5,14,0.00,,,0.00,VWS V13.01,2013-03-20 17:04:00,
2013-03-20 13:09:00,47.7,0.8,29.29,West,265,12.3,20.1,14,0.00,,,0.00,VWS V13.01,2013-03-20 17:09:00,
2013-03-20 13:14:00,48.0,1.1,29.29,West,280,10.1,12.8,14,0.00,,,0.00,VWS V13.01,2013-03-20 17:14:00,
2013-03-20 13:19:00,48.2,1.2,29.29,WNW,294,10.1,13.2,14,0.00,,,0.00,VWS V13.01,2013-03-20 17:19:00,
2013-03-20 13:24:00,48.4,1.4,29.29,NW,311,8.1,16.8,14,0.00,,,0.00,VWS V13.01,2013-03-20 17:24:00,
2013-03-20 13:29:00,48.4,1.4,29.29,WNW,286,6.3,13.6,14,0.00,,,0.00,VWS V13.01,2013-03-20 17:29:00,
2013-03-20 13:34:00,48.4,1.4,29.29,WSW,240,10.5,14.5,14,0.00,,,0.00,VWS V13.01,2013-03-20 17:34:00,
2013-03-20 13:39:00,48.6,1.5,29.29,West,264,11.0,13.2,14,0.00,,,0.00,VWS V13.01,2013-03-20 17:39:00,
2013-03-20 13:44:00,48.2,1.2,29.29,WNW,296,5.8,12.8,14,0.00,,,0.00,VWS V13.01,2013-03-20 17:44:00,
2013-03-20 13:49:00,48.7,1.7,29.26,WNW,288,12.8,19.7,14,0.00,,,0.00,VWS V13.01,2013-03-20 17:49:00,
2013-03-20 13:55:00,48.4,1.4,29.26,WNW,285,8.3,19.2,14,0.00,,,0.00,VWS V13.01,2013-03-20 17:55:00,
2013-03-20 13:59:00,48.4,1.4,29.26,West,267,15.4,20.1,14,0.00,,,0.00,VWS V13.01,2013-03-20 17:59:00,
2013-03-20 14:04:00,48.4,1.4,29.26,WNW,286,11.0,15.0,14,0.00,,,0.00,VWS V13.01,2013-03-20 18:04:00,
2013-03-20 14:09:00,48.0,1.1,29.26,West,261,8.1,15.9,14,0.00,,,0.00,VWS V13.01,2013-03-20 18:09:00,
2013-03-20 14:14:00,48.6,1.5,29.26,West,270,15.9,15.9,14,0.00,,,0.00,VWS V13.01,2013-03-20 18:14:00,
2013-03-20 14:19:00,48.6,1.5,29.26,WNW,294,13.2,25.1,14,0.00,,,0.00,VWS V13.01,2013-03-20 18:19:00,
2013-03-20 14:24:00,48.7,1.7,29.26,West,262,12.8,20.1,14,0.00,,,0.00,VWS V13.01,2013-03-20 18:24:00,
2013-03-20 14:29:00,48.4,1.4,29.26,WSW,253,18.8,25.5,14,0.00,,,0.00,VWS V13.01,2013-03-20 18:29:00,
2013-03-20 14:34:00,48.6,1.5,29.23,West,275,8.1,12.8,14,0.00,,,0.00,VWS V13.01,2013-03-20 18:34:00,
2013-03-20 14:39:00,48.7,1.7,29.23,West,269,12.8,18.8,14,0.00,,,0.00,VWS V13.01,2013-03-20 18:39:00,
2013-03-20 14:44:00,48.6,1.5,29.23,SW,236,13.2,17.9,14,0.00,,,0.00,VWS V13.01,2013-03-20 18:44:00,
2013-03-20 14:49:00,48.4,1.4,29.23,WNW,283,10.1,17.4,14,0.00,,,0.00,VWS V13.01,2013-03-20 18:49:00,
2013-03-20 14:54:00,48.4,1.4,29.23,NNW,332,23.7,25.5,14,0.00,,,0.00,VWS V13.01,2013-03-20 18:54:00,
2013-03-20 14:59:00,48.4,1.4,29.23,West,265,8.7,21.9,14,0.00,,,0.00,VWS V13.01,2013-03-20 18:59:00,
2013-03-20 15:04:00,48.6,1.5,29.23,NW,318,17.4,28.4,14,0.00,,,0.00,VWS V13.01,2013-03-20 19:04:00,
2013-03-20 15:10:00,48.7,1.7,29.23,NW,310,14.1,17.0,14,0.00,,,0.00,VWS V13.01,2013-03-20 19:10:00,
2013-03-20 15:15:00,48.9,1.8,29.23,NW,307,5.4,17.4,14,0.00,,,0.00,VWS V13.01,2013-03-20 19:15:00,
2013-03-20 15:20:00,48.9,1.8,29.21,West,267,12.8,17.4,14,0.00,,,0.00,VWS V13.01,2013-03-20 19:20:00,
2013-03-20 15:25:00,49.1,2.0,29.21,WSW,243,10.5,15.4,14,0.00,,,0.00,VWS V13.01,2013-03-20 19:25:00,
2013-03-20 15:30:00,49.1,2.0,29.21,NW,304,13.2,19.7,14,0.00,,,0.00,VWS V13.01,2013-03-20 19:30:00,
2013-03-20 15:35:00,48.7,1.7,29.21,NW,312,18.8,18.8,14,0.00,,,0.00,VWS V13.01,2013-03-20 19:35:00,
2013-03-20 15:40:00,48.7,1.7,29.21,NW,309,11.0,25.1,14,0.00,,,0.00,VWS V13.01,2013-03-20 19:40:00,
2013-03-20 15:45:00,48.6,1.5,29.21,NW,314,15.9,21.0,14,0.00,,,0.00,VWS V13.01,2013-03-20 19:45:00,
2013-03-20 15:50:00,48.6,1.5,29.21,WNW,292,10.1,15.4,14,0.00,,,0.00,VWS V13.01,2013-03-20 19:50:00,
2013-03-20 15:55:00,48.6,1.5,29.21,WNW,290,21.9,21.9,14,0.00,,,0.00,VWS V13.01,2013-03-20 19:55:00,
2013-03-20 16:00:00,48.2,1.2,29.21,WNW,299,8.7,19.7,14,0.00,,,0.00,VWS V13.01,2013-03-20 20:00:00,
2013-03-20 16:05:00,48.0,1.1,29.18,WNW,286,10.5,22.4,14,0.00,,,0.00,VWS V13.01,2013-03-20 20:05:00,
2013-03-20 16:10:00,47.8,1.0,29.18,WNW,286,11.0,15.0,14,0.00,,,0.00,VWS V13.01,2013-03-20 20:10:00,
2013-03-20 16:15:00,47.8,1.0,29.18,WNW,302,12.3,15.4,14,0.00,,,0.00,VWS V13.01,2013-03-20 20:15:00,
2013-03-20 16:20:00,48.0,1.1,29.18,WNW,288,20.6,20.6,14,0.00,,,0.00,VWS V13.01,2013-03-20 20:20:00,
2013-03-20 16:25:00,47.7,0.8,29.18,West,273,11.0,15.4,14,0.00,,,0.00,VWS V13.01,2013-03-20 20:25:00,
2013-03-20 16:30:00,47.8,1.0,29.18,WNW,297,12.8,15.4,14,0.00,,,0.00,VWS V13.01,2013-03-20 20:30:00,
2013-03-20 16:35:00,47.7,0.8,29.18,NW,304,8.1,14.5,14,0.00,,,0.00,VWS V13.01,2013-03-20 20:35:00,
2013-03-20 16:40:00,47.5,0.7,29.18,WNW,293,8.1,19.7,14,0.00,,,0.00,VWS V13.01,2013-03-20 20:40:00,
2013-03-20 16:45:00,46.9,0.2,29.18,WNW,299,15.0,18.3,14,0.00,,,0.00,VWS V13.01,2013-03-20 20:45:00,
2013-03-20 16:50:00,46.6,-0.1,29.18,NW,320,17.4,25.7,14,0.00,,,0.00,VWS V13.01,2013-03-20 20:50:00,
2013-03-20 16:55:00,46.4,-0.2,29.18,West,264,12.8,19.2,14,0.00,,,0.00,VWS V13.01,2013-03-20 20:55:00,
2013-03-20 17:00:00,46.2,1.1,29.18,WNW,290,8.1,17.0,15,0.00,,,0.00,VWS V13.01,2013-03-20 21:00:00,
2013-03-20 17:05:00,45.9,0.8,29.18,West,272,12.8,21.9,15,0.00,,,0.00,VWS V13.01,2013-03-20 21:05:00,
2013-03-20 17:10:00,45.1,0.3,29.18,NW,305,8.3,24.6,15,0.00,,,0.00,VWS V13.01,2013-03-20 21:10:00,
2013-03-20 17:15:00,44.4,-0.3,29.18,WNW,303,10.1,24.2,15,0.00,,,0.00,VWS V13.01,2013-03-20 21:15:00,
2013-03-20 17:20:00,44.2,-0.5,29.21,WNW,300,8.3,15.4,15,0.00,,,0.00,VWS V13.01,2013-03-20 21:20:00,
2013-03-20 17:25:00,43.2,-1.4,29.21,West,272,15.4,24.2,15,0.00,,,0.00,VWS V13.01,2013-03-20 21:25:00,
2013-03-20 17:30:00,42.3,-0.7,29.21,WNW,301,11.0,23.7,16,0.00,,,0.00,VWS V13.01,2013-03-20 21:30:00,
2013-03-20 17:35:00,42.1,-0.9,29.21,West,277,6.3,15.4,16,0.00,,,0.00,VWS V13.01,2013-03-20 21:35:00,
2013-03-20 17:40:00,42.3,-0.7,29.21,WNW,284,5.8,11.9,16,0.00,,,0.00,VWS V13.01,2013-03-20 21:40:00,
2013-03-20 17:45:00,42.3,-0.7,29.21,West,273,13.2,15.0,16,0.00,,,0.00,VWS V13.01,2013-03-20 21:45:00,
2013-03-20 17:50:00,42.3,-0.7,29.21,NW,304,13.6,15.4,16,0.00,,,0.00,VWS V13.01,2013-03-20 21:50:00,
2013-03-20 17:55:00,42.3,-0.7,29.21,West,276,11.0,14.1,16,0.00,,,0.00,VWS V13.01,2013-03-20 21:55:00,
2013-03-20 18:00:00,42.1,-0.9,29.21,NW,314,10.1,19.7,16,0.00,,,0.00,VWS V13.01,2013-03-20 22:00:00,
2013-03-20 18:05:00,41.9,-1.0,29.21,WNW,300,19.2,19.2,16,0.00,,,0.00,VWS V13.01,2013-03-20 22:05:00,
2013-03-20 18:10:00,41.5,-1.3,29.21,WNW,301,14.5,18.3,16,0.00,,,0.00,VWS V13.01,2013-03-20 22:10:00,
2013-03-20 18:15:00,41.4,-1.5,29.21,NW,307,11.0,14.5,16,0.00,,,0.00,VWS V13.01,2013-03-20 22:15:00,
2013-03-20 18:20:00,41.0,-1.7,29.21,WNW,298,21.9,23.3,16,0.00,,,0.00,VWS V13.01,2013-03-20 22:20:00,
2013-03-20 18:25:00,40.8,-1.9,29.21,NNW,327,7.6,15.9,16,0.00,,,0.00,VWS V13.01,2013-03-20 22:25:00,
2013-03-20 18:30:00,40.8,-1.9,29.21,NW,314,11.0,22.4,16,0.00,,,0.00,VWS V13.01,2013-03-20 22:30:00,
2013-03-20 18:35:00,40.6,-2.0,29.21,WSW,258,11.9,18.8,16,0.00,,,0.00,VWS V13.01,2013-03-20 22:35:00,
2013-03-20 18:40:00,40.5,-2.2,29.21,West,275,8.3,15.4,16,0.00,,,0.00,VWS V13.01,2013-03-20 22:40:00,
2013-03-20 18:45:00,40.3,-2.3,29.21,WNW,290,11.0,12.8,16,0.00,,,0.00,VWS V13.01,2013-03-20 22:45:00,
2013-03-20 18:50:00,40.1,-2.5,29.23,NW,305,11.0,23.7,16,0.00,,,0.00,VWS V13.01,2013-03-20 22:50:00,
2013-03-20 18:55:00,39.9,-2.6,29.23,West,273,8.3,15.0,16,0.00,,,0.00,VWS V13.01,2013-03-20 22:55:00,
2013-03-20 19:00:00,39.9,-2.6,29.23,West,274,8.7,12.8,16,0.00,,,0.00,VWS V13.01,2013-03-20 23:00:00,
2013-03-20 19:05:00,39.9,-2.6,29.23,NW,312,12.3,12.3,16,0.00,,,0.00,VWS V13.01,2013-03-20 23:05:00,
2013-03-20 19:10:00,39.7,-2.8,29.23,NW,320,17.0,17.0,16,0.00,,,0.00,VWS V13.01,2013-03-20 23:10:00,
2013-03-20 19:15:00,39.7,-2.8,29.23,WNW,298,13.2,15.0,16,0.00,,,0.00,VWS V13.01,2013-03-20 23:15:00,
2013-03-20 19:20:00,39.6,-2.9,29.23,WNW,286,17.0,17.4,16,0.00,,,0.00,VWS V13.01,2013-03-20 23:20:00,
2013-03-20 19:25:00,39.4,-3.1,29.23,NW,314,22.4,22.4,16,0.00,,,0.00,VWS V13.01,2013-03-20 23:25:00,
2013-03-20 19:30:00,39.2,-3.2,29.23,NNW,330,11.0,17.4,16,0.00,,,0.00,VWS V13.01,2013-03-20 23:30:00,
2013-03-20 19:35:00,38.8,-3.5,29.23,WNW,292,15.0,19.2,16,0.00,,,0.00,VWS V13.01,2013-03-20 23:35:00,
2013-03-20 19:40:00,38.7,-3.7,29.23,NW,309,10.1,15.4,16,0.00,,,0.00,VWS V13.01,2013-03-20 23:40:00,
2013-03-20 19:45:00,38.3,-4.0,29.23,NW,309,12.8,15.4,16,0.00,,,0.00,VWS V13.01,2013-03-20 23:45:00,
2013-03-20 19:50:00,37.9,-4.2,29.23,WNW,283,9.6,22.8,16,0.00,,,0.00,VWS V13.01,2013-03-20 23:50:00,
2013-03-20 19:55:00,37.6,-4.5,29.23,NW,312,10.1,18.3,16,0.00,,,0.00,VWS V13.01,2013-03-20 23:55:00,
2013-03-20 20:00:00,37.4,-4.7,29.23,WNW,292,12.8,15.4,16,0.00,,,0.00,VWS V13.01,2013-03-21 00:00:00,
2013-03-20 20:05:00,37.4,-4.7,29.23,WNW,283,8.3,11.0,16,0.00,,,0.00,VWS V13.01,2013-03-21 00:05:00,
2013-03-20 20:10:00,37.2,-3.6,29.23,WNW,288,8.3,16.3,17,0.00,,,0.00,VWS V13.01,2013-03-21 00:10:00,
2013-03-20 20:15:00,37.0,-3.7,29.23,West,280,8.3,13.2,17,0.00,,,0.00,VWS V13.01,2013-03-21 00:15:00,
2013-03-20 20:20:00,37.0,-3.7,29.23,NW,305,10.5,17.4,17,0.00,,,0.00,VWS V13.01,2013-03-21 00:20:00,
2013-03-20 20:25:00,36.9,-3.9,29.23,NW,316,5.4,15.4,17,0.00,,,0.00,VWS V13.01,2013-03-21 00:25:00,
2013-03-20 20:30:00,36.7,-4.0,29.23,WNW,298,8.7,16.3,17,0.00,,,0.00,VWS V13.01,2013-03-21 00:30:00,
2013-03-20 20:35:00,36.5,-4.2,29.23,WNW,297,13.2,14.1,17,0.00,,,0.00,VWS V13.01,2013-03-21 00:35:00,
2013-03-20 20:40:00,36.3,-4.3,29.23,WNW,294,11.9,14.5,17,0.00,,,0.00,VWS V13.01,2013-03-21 00:40:00,
2013-03-20 20:45:00,36.0,-4.6,29.23,WNW,292,15.4,19.7,17,0.00,,,0.00,VWS V13.01,2013-03-21 00:45:00,
2013-03-20 20:50:00,35.6,-4.9,29.26,NW,312,13.2,13.2,17,0.00,,,0.00,VWS V13.01,2013-03-21 00:50:00,
2013-03-20 20:55:00,35.4,-5.1,29.26,WNW,301,7.6,15.4,17,0.00,,,0.00,VWS V13.01,2013-03-21 00:55:00,
2013-03-20 21:01:00,35.2,-5.2,29.26,WNW,287,12.3,19.7,17,0.00,,,0.00,VWS V13.01,2013-03-21 01:01:00,
2013-03-20 21:06:00,34.9,-5.5,29.26,NW,316,8.1,15.4,17,0.00,,,0.00,VWS V13.01,2013-03-21 01:06:00,
2013-03-20 21:11:00,34.7,-5.6,29.26,WNW,291,15.9,15.9,17,0.00,,,0.00,VWS V13.01,2013-03-21 01:11:00,
2013-03-20 21:16:00,34.5,-5.8,29.26,WNW,288,7.6,10.1,17,0.00,,,0.00,VWS V13.01,2013-03-21 01:16:00,
2013-03-20 21:21:00,34.3,-5.9,29.26,WNW,290,13.2,13.2,17,0.00,,,0.00,VWS V13.01,2013-03-21 01:21:00,
2013-03-20 21:27:00,34.2,-6.1,29.26,NW,306,5.8,6.7,17,0.00,,,0.00,VWS V13.01,2013-03-21 01:27:00,
2013-03-20 21:31:00,33.8,-6.4,29.26,WNW,285,10.5,11.4,17,0.00,,,0.00,VWS V13.01,2013-03-21 01:31:00,
2013-03-20 21:36:00,33.6,-5.3,29.26,WNW,295,3.1,12.3,18,0.00,,,0.00,VWS V13.01,2013-03-21 01:36:00,
2013-03-20 21:42:00,33.3,-5.7,29.26,WNW,292,12.8,17.0,18,0.00,,,0.00,VWS V13.01,2013-03-21 01:42:00,
2013-03-20 21:47:00,32.9,-5.9,29.26,NW,308,13.2,15.4,18,0.00,,,0.00,VWS V13.01,2013-03-21 01:47:00,
2013-03-20 21:52:00,32.7,-6.1,29.26,WNW,285,8.3,15.4,18,0.00,,,0.00,VWS V13.01,2013-03-21 01:52:00,
2013-03-20 22:00:00,32.4,-6.4,29.26,WNW,300,15.9,15.9,18,0.00,,,0.00,VWS V13.01,2013-03-21 02:00:00,
2013-03-20 22:10:00,31.8,-6.8,29.29,NW,313,7.6,14.5,18,0.00,,,0.00,VWS V13.01,2013-03-21 02:10:00,
2013-03-20 22:15:00,31.5,-7.2,29.29,North,353,5.4,10.1,18,0.00,,,0.00,VWS V13.01,2013-03-21 02:15:00,
2013-03-20 22:20:00,31.3,-7.3,29.29,NW,311,8.1,10.5,18,0.00,,,0.00,VWS V13.01,2013-03-21 02:20:00,
2013-03-20 22:25:00,31.1,-7.4,29.29,NNW,338,9.6,10.5,18,0.00,,,0.00,VWS V13.01,2013-03-21 02:25:00,
2013-03-20 22:31:00,30.7,-7.7,29.29,WNW,286,5.4,13.2,18,0.00,,,0.00,VWS V13.01,2013-03-21 02:31:00,
2013-03-20 22:40:00,30.4,-8.0,29.29,NNW,332,8.1,13.2,18,0.00,,,0.00,VWS V13.01,2013-03-21 02:40:00,
2013-03-20 22:45:00,30.2,-8.2,29.29,WNW,289,5.8,13.2,18,0.00,,,0.00,VWS V13.01,2013-03-21 02:45:00,
2013-03-20 22:50:00,30.2,-8.2,29.29,NW,304,6.3,8.7,18,0.00,,,0.00,VWS V13.01,2013-03-21 02:50:00,
2013-03-20 22:56:00,30.0,-8.3,29.29,WNW,297,2.7,5.4,18,0.00,,,0.00,VWS V13.01,2013-03-21 02:56:00,
2013-03-20 23:01:00,29.7,-8.6,29.29,WNW,295,8.3,15.0,18,0.00,,,0.00,VWS V13.01,2013-03-21 03:01:00,
2013-03-20 23:07:00,29.5,-8.8,29.29,North,0,7.6,10.5,18,0.00,,,0.00,VWS V13.01,2013-03-21 03:07:00,
2013-03-20 23:12:00,29.5,-8.8,29.29,WNW,285,15.0,15.0,18,0.00,,,0.00,VWS V13.01,2013-03-21 03:12:00,
2013-03-20 23:17:00,29.3,-8.9,29.29,WNW,298,7.6,15.4,18,0.00,,,0.00,VWS V13.01,2013-03-21 03:17:00,
2013-03-20 23:22:00,29.3,-8.9,29.29,NNW,328,5.8,15.4,18,0.00,,,0.00,VWS V13.01,2013-03-21 03:22:00,
2013-03-20 23:27:00,29.1,-9.1,29.29,NW,321,3.6,8.1,18,0.00,,,0.00,VWS V13.01,2013-03-21 03:27:00,
2013-03-20 23:32:00,28.9,-9.2,29.29,NW,321,15.4,15.4,18,0.00,,,0.00,VWS V13.01,2013-03-21 03:32:00,
2013-03-20 23:37:00,28.8,-9.4,29.29,NW,304,16.8,16.8,18,0.00,,,0.00,VWS V13.01,2013-03-21 03:37:00,
2013-03-20 23:42:00,28.6,-9.5,29.29,NNW,330,11.0,16.3,18,0.00,,,0.00,VWS V13.01,2013-03-21 03:42:00,
2013-03-20 23:47:00,28.6,-9.5,29.29,NW,304,9.6,12.8,18,0.00,,,0.00,VWS V13.01,2013-03-21 03:47:00,
2013-03-20 23:52:00,28.4,-9.7,29.29,West,280,8.3,10.1,18,0.00,,,0.00,VWS V13.01,2013-03-21 03:52:00,
2013-03-20 23:57:00,28.4,-9.7,29.29,NW,310,5.4,12.8,18,0.00,,,0.00,VWS V13.01,2013-03-21 03:57:00,